Time,TemperatureF,DewpointF,PressureIn,WindDirection,WindDirectionDegrees,WindSpeedMPH,WindSpeedGustMPH,Humidity,HourlyPrecipIn,Conditions,Clouds,dailyrainin,SoftwareType,DateUTC
2013-04-07 00:08:00,44.6,41.0,30.31,WNW,300,0.0,1.0,88,0.00,,,0.00,weatherlink.com 1.10,2013-04-07 04:08:00,
2013-04-07 00:23:00,44.0,41.0,30.31,NNW,332,0.0,1.0,88,0.00,,,0.00,weatherlink.com 1.10,2013-04-07 04:23:00,
2013-04-07 00:38:00,43.7,41.0,30.30,North,357,0.0,1.0,89,0.00,,,0.00,weatherlink.com 1.10,2013-04-07 04:38:00,
2013-04-07 00:53:00,43.3,41.0,30.30,North,355,0.0,1.0,90,0.00,,,0.00,weatherlink.com 1.10,2013-04-07 04:53:00,
2013-04-07 01:08:00,43.1,41.0,30.30,North,349,0.0,1.0,91,0.00,,,0.00,weatherlink.com 1.10,2013-04-07 05:08:00,
2013-04-07 01:23:00,43.1,41.0,30.29,NNW,329,0.0,0.0,91,0.00,,,0.00,weatherlink.com 1.10,2013-04-07 05:23:00,
2013-04-07 04:03:00,42.2,41.0,30.25,NW,326,0.0,2.0,95,0.00,,,0.00,weatherlink.com 1.10,2013-04-07 08:03:00,
2013-04-07 04:39:00,42.5,42.0,30.25,NW,304,0.0,1.0,96,0.00,,,0.00,weatherlink.com 1.10,2013-04-07 08:39:00,
2013-04-07 04:54:00,42.6,42.0,30.25,North,359,0.0,2.0,96,0.00,,,0.00,weatherlink.com 1.10,2013-04-07 08:54:00,
2013-04-07 05:09:00,42.9,42.0,30.25,NW,312,0.0,2.0,96,0.00,,,0.00,weatherlink.com 1.10,2013-04-07 09:09:00,
2013-04-07 05:24:00,42.7,41.0,30.25,WNW,298,1.0,2.0,95,0.00,,,0.00,weatherlink.com 1.10,2013-04-07 09:24:00,
2013-04-07 05:54:00,40.5,40.0,30.26,WNW,302,1.0,2.0,96,0.00,,,0.00,weatherlink.com 1.10,2013-04-07 09:54:00,
2013-04-07 06:09:00,40.1,39.0,30.26,NW,308,1.0,2.0,96,0.00,,,0.00,weatherlink.com 1.10,2013-04-07 10:09:00,
2013-04-07 06:25:00,39.7,39.0,30.27,WNW,301,1.0,3.0,96,0.00,,,0.00,weatherlink.com 1.10,2013-04-07 10:25:00,
2013-04-07 06:39:00,39.7,39.0,30.27,NW,306,1.0,2.0,96,0.00,,,0.00,weatherlink.com 1.10,2013-04-07 10:39:00,
2013-04-07 06:54:00,40.4,40.0,30.28,NW,305,1.0,2.0,97,0.00,,,0.00,weatherlink.com 1.10,2013-04-07 10:54:00,
2013-04-07 07:09:00,40.1,39.0,30.28,NW,312,0.0,2.0,96,0.00,,,0.00,weatherlink.com 1.10,2013-04-07 11:09:00,
2013-04-07 07:24:00,40.7,40.0,30.29,NW,312,1.0,2.0,96,0.00,,,0.00,weatherlink.com 1.10,2013-04-07 11:24:00,
2013-04-07 07:39:00,42.1,41.0,30.29,WNW,302,0.0,1.0,96,0.00,,,0.00,weatherlink.com 1.10,2013-04-07 11:39:00,
2013-04-07 07:54:00,43.0,42.0,30.29,NW,308,0.0,2.0,96,0.00,,,0.00,weatherlink.com 1.10,2013-04-07 11:54:00,
2013-04-07 08:09:00,45.5,45.0,30.29,NNW,346,0.0,1.0,96,0.00,,,0.00,weatherlink.com 1.10,2013-04-07 12:09:00,
2013-04-07 08:25:00,49.0,48.0,30.29,North,354,0.0,1.0,97,0.00,,,0.00,weatherlink.com 1.10,2013-04-07 12:25:00,
2013-04-07 08:39:00,52.5,51.0,30.29,ENE,75,2.0,5.0,95,0.00,,,0.00,weatherlink.com 1.10,2013-04-07 12:39:00,
2013-04-07 08:55:00,53.8,52.0,30.29,East,96,3.0,6.0,93,0.00,,,0.00,weatherlink.com 1.10,2013-04-07 12:55:00,
2013-04-07 09:10:00,54.0,52.0,30.29,East,96,2.0,6.0,92,0.00,,,0.00,weatherlink.com 1.10,2013-04-07 13:10:00,
2013-04-07 09:25:00,54.5,52.0,30.29,East,79,4.0,6.0,90,0.00,,,0.00,weatherlink.com 1.10,2013-04-07 13:25:00,
2013-04-07 09:40:00,55.6,53.0,30.29,East,82,4.0,5.0,89,0.00,,,0.00,weatherlink.com 1.10,2013-04-07 13:40:00,
2013-04-07 09:55:00,56.0,52.0,30.30,East,86,6.0,6.0,87,0.00,,,0.00,weatherlink.com 1.10,2013-04-07 13:55:00,
2013-04-07 10:10:00,55.9,52.0,30.30,East,84,4.0,6.0,87,0.00,,,0.00,weatherlink.com 1.10,2013-04-07 14:10:00,
2013-04-07 10:25:00,56.7,53.0,30.30,East,80,4.0,5.0,87,0.00,,,0.00,weatherlink.com 1.10,2013-04-07 14:25:00,
2013-04-07 10:40:00,56.9,53.0,30.30,East,89,3.0,5.0,86,0.00,,,0.00,weatherlink.com 1.10,2013-04-07 14:40:00,
2013-04-07 10:55:00,57.1,53.0,30.30,East,85,3.0,5.0,85,0.00,,,0.00,weatherlink.com 1.10,2013-04-07 14:55:00,
2013-04-07 11:10:00,57.6,53.0,30.30,East,83,4.0,5.0,85,0.00,,,0.00,weatherlink.com 1.10,2013-04-07 15:10:00,
2013-04-07 11:25:00,57.8,53.0,30.30,ENE,73,4.0,6.0,85,0.00,,,0.00,weatherlink.com 1.10,2013-04-07 15:25:00,
2013-04-07 11:40:00,58.2,54.0,30.30,East,81,4.0,5.0,85,0.00,,,0.00,weatherlink.com 1.10,2013-04-07 15:40:00,
2013-04-07 11:55:00,58.7,54.0,30.29,East,83,3.0,5.0,84,0.00,,,0.00,weatherlink.com 1.10,2013-04-07 15:55:00,
2013-04-07 12:10:00,59.4,54.0,30.29,East,83,5.0,5.0,81,0.00,,,0.00,weatherlink.com 1.10,2013-04-07 16:10:00,
2013-04-07 12:25:00,59.4,55.0,30.28,East,87,4.0,4.0,84,0.00,,,0.00,weatherlink.com 1.10,2013-04-07 16:25:00,
2013-04-07 12:40:00,60.1,55.0,30.27,East,87,4.0,5.0,82,0.00,,,0.00,weatherlink.com 1.10,2013-04-07 16:40:00,
2013-04-07 12:55:00,59.7,56.0,30.27,East,81,3.0,5.0,86,0.00,,,0.00,weatherlink.com 1.10,2013-04-07 16:55:00,
2013-04-07 13:10:00,60.0,56.0,30.26,East,86,4.0,5.0,86,0.00,,,0.00,weatherlink.com 1.10,2013-04-07 17:10:00,
2013-04-07 13:25:00,60.5,56.0,30.25,East,88,3.0,5.0,86,0.00,,,0.00,weatherlink.com 1.10,2013-04-07 17:25:00,
2013-04-07 13:40:00,60.6,57.0,30.25,NE,47,2.0,6.0,87,0.00,,,0.00,weatherlink.com 1.10,2013-04-07 17:40:00,
2013-04-07 13:55:00,61.2,57.0,30.24,East,83,4.0,5.0,85,0.00,,,0.00,weatherlink.com 1.10,2013-04-07 17:55:00,
2013-04-07 14:10:00,61.6,56.0,30.23,East,88,1.0,5.0,83,0.00,,,0.00,weatherlink.com 1.10,2013-04-07 18:10:00,
2013-04-07 14:25:00,62.1,57.0,30.23,East,80,3.0,5.0,82,0.00,,,0.00,weatherlink.com 1.10,2013-04-07 18:25:00,
2013-04-07 14:40:00,62.6,56.0,30.22,East,81,2.0,5.0,79,0.00,,,0.00,weatherlink.com 1.10,2013-04-07 18:40:00,
2013-04-07 14:55:00,62.6,56.0,30.22,ENE,59,2.0,6.0,78,0.00,,,0.00,weatherlink.com 1.10,2013-04-07 18:55:00,
2013-04-07 15:10:00,62.0,55.0,30.21,East,88,3.0,7.0,79,0.00,,,0.00,weatherlink.com 1.10,2013-04-07 19:10:00,
2013-04-07 15:25:00,62.3,56.0,30.21,East,91,3.0,5.0,81,0.00,,,0.00,weatherlink.com 1.10,2013-04-07 19:25:00,
2013-04-07 15:40:00,62.8,56.0,30.20,East,87,3.0,5.0,77,0.00,,,0.00,weatherlink.com 1.10,2013-04-07 19:40:00,
2013-04-07 15:55:00,62.6,56.0,30.20,East,89,3.0,6.0,79,0.00,,,0.00,weatherlink.com 1.10,2013-04-07 19:55:00,
2013-04-07 16:10:00,62.2,56.0,30.19,East,84,2.0,5.0,79,0.00,,,0.00,weatherlink.com 1.10,2013-04-07 20:10:00,
2013-04-07 16:25:00,63.1,54.0,30.19,SSW,193,3.0,6.0,71,0.00,,,0.00,weatherlink.com 1.10,2013-04-07 20:25:00,
2013-04-07 16:40:00,63.6,54.0,30.19,SSW,194,9.0,10.0,72,0.00,,,0.00,weatherlink.com 1.10,2013-04-07 20:40:00,
2013-04-07 16:56:00,63.4,54.0,30.18,SSW,195,9.0,13.0,71,0.00,,,0.00,weatherlink.com 1.10,2013-04-07 20:56:00,
2013-04-07 17:11:00,63.3,55.0,30.18,SSW,195,9.0,13.0,73,0.00,,,0.00,weatherlink.com 1.10,2013-04-07 21:11:00,
2013-04-07 17:26:00,62.8,55.0,30.18,SSW,208,7.0,13.0,76,0.00,,,0.00,weatherlink.com 1.10,2013-04-07 21:26:00,
2013-04-07 17:41:00,62.4,55.0,30.18,South,179,8.0,11.0,76,0.00,,,0.00,weatherlink.com 1.10,2013-04-07 21:41:00,
2013-04-07 17:56:00,62.2,55.0,30.18,SSW,197,8.0,11.0,76,0.00,,,0.00,weatherlink.com 1.10,2013-04-07 21:56:00,
2013-04-07 18:11:00,62.0,55.0,30.18,SSW,195,8.0,11.0,77,0.00,,,0.00,weatherlink.com 1.10,2013-04-07 22:11:00,
2013-04-07 18:26:00,61.7,55.0,30.18,South,191,8.0,12.0,78,0.00,,,0.00,weatherlink.com 1.10,2013-04-07 22:26:00,
2013-04-07 19:11:00,61.2,55.0,30.19,SSW,210,5.0,10.0,81,0.00,,,0.00,weatherlink.com 1.10,2013-04-07 23:11:00,
2013-04-07 19:26:00,60.9,55.0,30.18,SSW,208,5.0,7.0,82,0.00,,,0.00,weatherlink.com 1.10,2013-04-07 23:26:00,
2013-04-07 19:56:00,59.5,55.0,30.19,SSE,165,1.0,3.0,85,0.00,,,0.00,weatherlink.com 1.10,2013-04-07 23:56:00,
2013-04-07 20:26:00,59.1,55.0,30.19,SSE,158,2.0,3.0,86,0.00,,,0.00,weatherlink.com 1.10,2013-04-08 00:26:00,
2013-04-07 20:56:00,59.2,54.0,30.20,SSE,162,2.0,4.0,84,0.00,,,0.00,weatherlink.com 1.10,2013-04-08 00:56:00,
2013-04-07 21:27:00,58.6,55.0,30.21,ESE,116,1.0,2.0,87,0.00,,,0.00,weatherlink.com 1.10,2013-04-08 01:27:00,
2013-04-07 21:42:00,58.3,55.0,30.21,SE,124,1.0,1.0,88,0.00,,,0.00,weatherlink.com 1.10,2013-04-08 01:42:00,
2013-04-07 21:56:00,58.1,55.0,30.22,SE,141,0.0,1.0,88,0.00,,,0.00,weatherlink.com 1.10,2013-04-08 01:56:00,
2013-04-07 22:26:00,57.6,54.0,30.21,SSE,150,1.0,2.0,89,0.00,,,0.00,weatherlink.com 1.10,2013-04-08 02:26:00,
2013-04-07 22:56:00,57.5,55.0,30.21,SSE,165,2.0,3.0,90,0.00,,,0.00,weatherlink.com 1.10,2013-04-08 02:56:00,
2013-04-07 23:26:00,57.1,55.0,30.20,SSE,158,2.0,3.0,91,0.00,,,0.00,weatherlink.com 1.10,2013-04-08 03:26:00,
2013-04-07 23:41:00,57.1,55.0,30.20,SSW,198,2.0,3.0,91,0.00,,,0.00,weatherlink.com 1.10,2013-04-08 03:41:00,